Location: La Oliva
(42.2466°N, 2.9955°E)
Time: 06:57:58
(UTC+00:00)

Cosmos 2333 Rocket - Pass Details

Date: 22 April 2021
Orbit: 838 x 864 km, 70.8° (Epoch: 07 May)

Event Time Altitude Azimuth Distance (km) Brightness Sun altitude
Rises 19:09:08 0° 333° (NNW) 3,449 6.3 -6.3°
Reaches altitude 10° 19:11:37 10° 331° (NNW) 2,506 5.5 -6.7°
Maximum altitude 19:17:21 71° 249° (WSW) 905 2.6 -7.7°
Drops below altitude 10° 19:23:01 10° 166° (SSE) 2,475 4.3 -8.6°
Sets 19:25:27 0° 164° (SSE) 3,402 4.9 -9.1°
